Hourly Data Report for June 24, 2017

DRYDEN REGIONAL
ONTARIO

49°49'39.000" N
92°44'39.000" W
412.70 m
6032125
71527
YHD

Download Data

Hourly Data (June 2017)
Hourly Data Report for June 24, 2017
TIME
LST
Temp Definition
°C
Dew Point Definition
°C
Rel Hum Definition
%
Precip. Amount Definition
mm

Wind Dir Definition
10's deg

Wind Spd Definition
km/h
Visibility Definition
km
Stn Press Definition
kPa
Hmdx Definition


Wind Chill Definition


Weather Definition


00:00 11.9 11.6 98 0.0 28 13 16.1 96.12     Rain
01:00 11.6 11.3 98 0.8 27 15 14.5 96.10     Rain
02:00 11.3 11.0 98 0.2 28 13 16.1 96.10     Rain
03:00 11.2 10.9 98 0.2 29 11 16.1 96.11     Rain
04:00 11.0 10.7 98 0.8 28 13 16.1 96.13     Rain
05:00 10.9 10.6 98 2.8 30 9 11.3 96.18     Moderate Rain
06:00 10.9 10.6 98 4.8 27 9 12.9 96.22     Moderate Rain
07:00 10.8 10.5 98 5.5 30 11 6.4 96.24     Moderate Rain, Fog
08:00 11.2 10.9 98 2.0 29 9 9.7 96.29     Rain, Fog
09:00 12.2 11.7 97 0.0 29 11 16.1 96.33     LegendNANA
10:00 13.6 12.5 93 0.0 28 11 16.1 96.35     LegendNANA
11:00 13.1 12.1 94 0.2 27 11 16.1 96.39     LegendNANA
12:00 13.1 12.0 93 0.0 27 18 16.1 96.42     LegendNANA
13:00 12.7 11.7 94 0.0 24 18 16.1 96.47     LegendNANA
14:00 12.7 11.5 92 0.2 25 15 16.1 96.52     LegendNANA
15:00 14.4 12.3 87 0.0 26 22 16.1 96.53     LegendNANA
16:00 12.6 10.1 85 0.0 18 21 16.1 96.58     Thunderstorms
17:00 11.5 10.4 93 0.5 LegendMM 4 11.3 96.66     Moderate Rain
18:00 11.2 10.6 96 2.0 35 8 16.1 96.72     Moderate Rain
19:00 11.4 10.8 96 2.5 1 9 16.1 96.75     Moderate Rain
20:00 11.3 10.7 96 0.8 32 8 16.1 96.76     LegendNANA
21:00 10.3 9.2 93 0.0 36 11 16.1 96.86     LegendNANA
22:00 9.4 8.7 95 0.0 1 11 16.1 96.87     LegendNANA
23:00 9.4 8.5 94 0.0 35 11 16.1 96.90     LegendNANA

Notes on Data Quality.

Legend

  • E = Estimated
  • M = Missing
  • NA = Not Available*
  • [empty] = Indicates an unobserved value
Date modified: